Time,TemperatureF,DewpointF,PressureIn,WindDirection,WindDirectionDegrees,WindSpeedMPH,WindSpeedGustMPH,Humidity,HourlyPrecipIn,Conditions,Clouds,dailyrainin,SoftwareType,DateUTC
2013-07-15 00:00:00,67.6,66.2,30.14,NE,45,0.0,0.0,95,0.00,,,0.00,meteohub,2013-07-15 04:00:00,
2013-07-15 00:01:00,67.6,66.2,30.14,NE,45,0.0,0.0,95,0.00,,,0.00,meteohub,2013-07-15 04:01:00,
2013-07-15 00:02:00,67.6,66.2,30.14,NE,45,0.0,0.0,95,0.00,,,0.00,meteohub,2013-07-15 04:02:00,
2013-07-15 00:07:00,67.6,66.2,30.14,NE,45,0.0,0.0,95,0.00,,,0.00,meteohub,2013-07-15 04:07:00,
2013-07-15 00:13:00,67.5,66.0,30.14,NE,45,0.0,0.0,95,0.00,,,0.00,meteohub,2013-07-15 04:13:00,
2013-07-15 00:18:00,67.3,65.8,30.14,NE,45,0.0,0.0,95,0.00,,,0.00,meteohub,2013-07-15 04:18:00,
2013-07-15 00:23:00,67.3,66.0,30.14,NE,45,0.0,0.0,96,0.00,,,0.00,meteohub,2013-07-15 04:23:00,
2013-07-15 00:28:00,67.1,65.8,30.14,NE,45,0.0,0.0,96,0.00,,,0.00,meteohub,2013-07-15 04:28:00,
2013-07-15 00:33:00,66.9,65.7,30.14,NE,45,0.0,0.0,96,0.00,,,0.00,meteohub,2013-07-15 04:33:00,
2013-07-15 00:38:00,66.7,65.5,30.13,NE,45,0.0,0.0,96,0.00,,,0.00,meteohub,2013-07-15 04:38:00,
2013-07-15 00:43:00,66.7,65.5,30.13,NE,45,0.0,0.0,96,0.00,,,0.00,meteohub,2013-07-15 04:43:00,
2013-07-15 00:48:00,66.6,65.7,30.13,NE,45,0.0,0.0,97,0.00,,,0.00,meteohub,2013-07-15 04:48:00,
2013-07-15 00:53:00,66.6,65.7,30.14,NE,45,0.0,0.0,97,0.00,,,0.00,meteohub,2013-07-15 04:53:00,
2013-07-15 00:58:00,66.4,65.5,30.14,NE,45,0.0,0.0,97,0.00,,,0.00,meteohub,2013-07-15 04:58:00,
2013-07-15 01:03:00,66.4,65.5,30.13,NE,45,0.0,0.0,97,0.00,,,0.00,meteohub,2013-07-15 05:03:00,
2013-07-15 01:08:00,66.2,65.3,30.14,NE,45,0.0,0.0,97,0.00,,,0.00,meteohub,2013-07-15 05:08:00,
2013-07-15 01:13:00,66.2,65.3,30.13,NE,45,0.0,0.0,97,0.00,,,0.00,meteohub,2013-07-15 05:13:00,
2013-07-15 01:18:00,66.2,65.3,30.13,NE,45,0.0,0.0,97,0.00,,,0.00,meteohub,2013-07-15 05:18:00,
2013-07-15 01:23:00,66.0,65.5,30.13,NE,45,0.0,0.0,98,0.00,,,0.00,meteohub,2013-07-15 05:23:00,
2013-07-15 01:28:00,65.8,65.3,30.13,NE,45,0.0,0.0,98,0.00,,,0.00,meteohub,2013-07-15 05:28:00,
2013-07-15 01:33:00,65.7,65.1,30.13,NE,45,0.0,0.0,98,0.00,,,0.00,meteohub,2013-07-15 05:33:00,
2013-07-15 01:39:00,65.8,65.3,30.13,NE,45,0.0,0.0,98,0.00,,,0.00,meteohub,2013-07-15 05:39:00,
2013-07-15 01:44:00,65.8,65.3,30.12,NE,45,0.0,0.0,98,0.00,,,0.00,meteohub,2013-07-15 05:44:00,
2013-07-15 01:49:00,65.8,65.3,30.13,NE,45,0.0,0.0,98,0.00,,,0.00,meteohub,2013-07-15 05:49:00,
2013-07-15 01:54:00,65.7,65.1,30.13,NE,45,0.0,0.0,98,0.00,,,0.00,meteohub,2013-07-15 05:54:00,
2013-07-15 01:59:00,65.7,65.3,30.13,West,270,0.0,0.0,99,0.00,,,0.00,meteohub,2013-07-15 05:59:00,
2013-07-15 02:04:00,66.0,65.7,30.13,NW,315,0.0,0.0,99,0.00,,,0.00,meteohub,2013-07-15 06:04:00,
2013-07-15 02:09:00,66.0,65.7,30.13,NE,45,0.0,0.0,99,0.00,,,0.00,meteohub,2013-07-15 06:09:00,
2013-07-15 02:14:00,65.5,65.1,30.13,East,90,0.0,0.0,99,0.00,,,0.00,meteohub,2013-07-15 06:14:00,
2013-07-15 02:19:00,65.3,64.9,30.12,East,90,0.0,0.0,99,0.00,,,0.00,meteohub,2013-07-15 06:19:00,
2013-07-15 02:24:00,65.3,64.9,30.12,East,90,0.0,0.0,99,0.00,,,0.00,meteohub,2013-07-15 06:24:00,
2013-07-15 02:29:00,65.3,64.9,30.13,East,90,0.0,0.0,99,0.00,,,0.00,meteohub,2013-07-15 06:29:00,
2013-07-15 02:34:00,65.3,64.9,30.13,East,90,0.0,0.0,99,0.00,,,0.00,meteohub,2013-07-15 06:34:00,
2013-07-15 02:39:00,65.1,64.8,30.13,NW,315,0.0,0.0,99,0.00,,,0.00,meteohub,2013-07-15 06:39:00,
2013-07-15 02:44:00,64.9,64.6,30.13,North,0,0.0,0.0,99,0.00,,,0.00,meteohub,2013-07-15 06:44:00,
2013-07-15 02:49:00,64.8,64.4,30.13,North,0,0.0,0.0,99,0.00,,,0.00,meteohub,2013-07-15 06:49:00,
2013-07-15 02:54:00,64.6,64.2,30.13,North,0,0.0,0.0,99,0.00,,,0.00,meteohub,2013-07-15 06:54:00,
2013-07-15 02:59:00,64.6,64.2,30.13,North,0,0.0,0.0,99,0.00,,,0.00,meteohub,2013-07-15 06:59:00,
2013-07-15 03:04:00,64.6,64.2,30.12,North,0,0.0,0.0,99,0.00,,,0.00,meteohub,2013-07-15 07:04:00,
2013-07-15 03:09:00,64.4,64.0,30.13,North,0,0.0,0.0,99,0.00,,,0.00,meteohub,2013-07-15 07:09:00,
2013-07-15 03:14:00,64.4,64.0,30.12,North,0,0.0,0.0,99,0.00,,,0.00,meteohub,2013-07-15 07:14:00,
2013-07-15 03:19:00,64.2,63.9,30.13,North,0,0.0,0.0,99,0.00,,,0.00,meteohub,2013-07-15 07:19:00,
2013-07-15 03:25:00,64.0,63.7,30.12,North,0,0.0,0.0,99,0.00,,,0.00,meteohub,2013-07-15 07:25:00,
2013-07-15 03:30:00,64.0,63.7,30.13,North,0,0.0,0.0,99,0.00,,,0.00,meteohub,2013-07-15 07:30:00,
2013-07-15 03:35:00,64.0,63.7,30.13,North,0,0.0,0.0,99,0.00,,,0.00,meteohub,2013-07-15 07:35:00,
2013-07-15 03:40:00,64.0,63.7,30.13,North,0,0.0,0.0,99,0.00,,,0.00,meteohub,2013-07-15 07:40:00,
2013-07-15 03:45:00,64.0,63.7,30.13,North,0,0.0,0.0,99,0.00,,,0.00,meteohub,2013-07-15 07:45:00,
2013-07-15 03:50:00,63.9,63.5,30.13,North,0,0.0,0.0,99,0.00,,,0.00,meteohub,2013-07-15 07:50:00,
2013-07-15 03:55:00,63.9,63.5,30.13,North,0,0.0,0.0,99,0.00,,,0.00,meteohub,2013-07-15 07:55:00,
2013-07-15 04:00:00,63.9,63.5,30.13,North,0,0.0,0.0,99,0.00,,,0.00,meteohub,2013-07-15 08:00:00,
2013-07-15 04:05:00,63.7,63.3,30.13,North,0,0.0,0.0,99,0.00,,,0.00,meteohub,2013-07-15 08:05:00,
2013-07-15 04:10:00,63.7,63.3,30.13,North,0,0.0,0.0,99,0.00,,,0.00,meteohub,2013-07-15 08:10:00,
2013-07-15 04:15:00,63.5,63.1,30.13,North,0,0.0,0.0,99,0.00,,,0.00,meteohub,2013-07-15 08:15:00,
2013-07-15 04:20:00,63.7,63.3,30.14,North,0,0.0,0.0,99,0.00,,,0.00,meteohub,2013-07-15 08:20:00,
2013-07-15 04:25:00,63.7,63.3,30.14,North,0,0.0,0.0,99,0.00,,,0.00,meteohub,2013-07-15 08:25:00,
2013-07-15 04:30:00,63.7,63.3,30.14,North,0,0.0,0.0,99,0.00,,,0.00,meteohub,2013-07-15 08:30:00,
2013-07-15 04:35:00,63.5,63.1,30.13,North,0,0.0,0.0,99,0.00,,,0.00,meteohub,2013-07-15 08:35:00,
2013-07-15 04:41:00,63.3,63.0,30.14,North,0,0.0,0.0,99,0.00,,,0.00,meteohub,2013-07-15 08:41:00,
2013-07-15 04:46:00,63.3,63.0,30.14,West,270,0.0,0.0,99,0.00,,,0.00,meteohub,2013-07-15 08:46:00,
2013-07-15 04:51:00,63.5,63.1,30.13,West,270,0.0,0.0,99,0.00,,,0.00,meteohub,2013-07-15 08:51:00,
2013-07-15 04:56:00,63.5,63.1,30.14,North,0,0.0,0.0,99,0.00,,,0.00,meteohub,2013-07-15 08:56:00,
2013-07-15 05:01:00,63.3,63.0,30.14,North,0,0.0,0.0,99,0.00,,,0.00,meteohub,2013-07-15 09:01:00,
2013-07-15 05:06:00,63.3,63.0,30.14,North,0,0.0,0.0,99,0.00,,,0.00,meteohub,2013-07-15 09:06:00,
2013-07-15 05:11:00,63.1,62.8,30.14,North,0,0.0,0.0,99,0.00,,,0.00,meteohub,2013-07-15 09:11:00,
2013-07-15 05:16:00,63.1,62.8,30.14,North,0,0.0,0.0,99,0.00,,,0.00,meteohub,2013-07-15 09:16:00,
2013-07-15 05:21:00,63.1,62.8,30.14,North,0,0.0,0.0,99,0.00,,,0.00,meteohub,2013-07-15 09:21:00,
2013-07-15 05:26:00,63.1,62.8,30.14,North,0,0.0,0.0,99,0.00,,,0.00,meteohub,2013-07-15 09:26:00,
2013-07-15 05:31:00,63.1,62.8,30.14,North,0,0.0,0.0,99,0.00,,,0.00,meteohub,2013-07-15 09:31:00,
2013-07-15 05:36:00,63.1,62.8,30.14,SW,225,0.0,0.0,99,0.00,,,0.00,meteohub,2013-07-15 09:36:00,
2013-07-15 05:41:00,63.5,63.1,30.14,SW,225,0.0,0.0,99,0.00,,,0.00,meteohub,2013-07-15 09:41:00,
2013-07-15 05:46:00,63.7,63.3,30.14,SW,225,0.0,0.0,99,0.00,,,0.00,meteohub,2013-07-15 09:46:00,
2013-07-15 05:51:00,64.8,64.4,30.14,SW,225,0.0,0.0,99,0.00,,,0.00,meteohub,2013-07-15 09:51:00,
2013-07-15 05:56:00,66.0,65.7,30.14,North,0,0.0,0.0,99,0.00,,,0.00,meteohub,2013-07-15 09:56:00,
2013-07-15 06:01:00,66.9,66.6,30.14,North,0,0.0,0.0,99,0.00,,,0.00,meteohub,2013-07-15 10:01:00,
2013-07-15 06:06:00,67.8,66.9,30.14,North,0,0.0,0.0,97,0.00,,,0.00,meteohub,2013-07-15 10:06:00,
2013-07-15 06:12:00,68.7,67.5,30.14,North,0,0.0,0.0,96,0.00,,,0.00,meteohub,2013-07-15 10:12:00,
2013-07-15 06:17:00,70.7,68.5,30.14,North,0,0.0,0.0,93,0.00,,,0.00,meteohub,2013-07-15 10:17:00,
2013-07-15 06:22:00,72.3,68.9,30.13,North,0,0.0,0.0,89,0.00,,,0.00,meteohub,2013-07-15 10:22:00,
2013-07-15 06:27:00,74.7,69.1,30.14,North,0,0.0,0.0,83,0.00,,,0.00,meteohub,2013-07-15 10:27:00,
2013-07-15 06:32:00,75.9,68.9,30.14,North,0,0.0,0.0,79,0.00,,,0.00,meteohub,2013-07-15 10:32:00,
2013-07-15 06:37:00,77.7,70.0,30.14,North,0,0.0,0.0,77,0.00,,,0.00,meteohub,2013-07-15 10:37:00,
2013-07-15 06:42:00,79.2,69.8,30.14,North,0,0.0,0.0,73,0.00,,,0.00,meteohub,2013-07-15 10:42:00,
2013-07-15 06:47:00,79.7,68.5,30.14,North,0,0.0,0.0,69,0.00,,,0.00,meteohub,2013-07-15 10:47:00,
2013-07-15 06:52:00,79.7,69.4,30.14,North,0,0.0,0.0,71,0.00,,,0.00,meteohub,2013-07-15 10:52:00,
2013-07-15 06:57:00,80.6,68.2,30.14,North,0,0.0,0.0,66,0.00,,,0.00,meteohub,2013-07-15 10:57:00,
2013-07-15 07:02:00,81.9,69.8,30.14,North,0,0.0,0.0,67,0.00,,,0.00,meteohub,2013-07-15 11:02:00,
2013-07-15 07:07:00,83.8,70.3,30.14,North,0,0.0,0.0,64,0.00,,,0.00,meteohub,2013-07-15 11:07:00,
2013-07-15 07:12:00,84.9,69.4,30.14,North,0,0.0,0.0,60,0.00,,,0.00,meteohub,2013-07-15 11:12:00,
2013-07-15 07:17:00,85.3,69.8,30.14,North,0,1.0,0.0,60,0.00,,,0.00,meteohub,2013-07-15 11:17:00,
2013-07-15 07:22:00,85.1,69.6,30.14,North,0,0.0,0.0,60,0.00,,,0.00,meteohub,2013-07-15 11:22:00,
2013-07-15 07:27:00,84.2,68.7,30.14,NW,315,1.0,1.0,60,0.00,,,0.00,meteohub,2013-07-15 11:27:00,
2013-07-15 07:32:00,84.0,69.1,30.14,North,0,0.0,1.0,61,0.00,,,0.00,meteohub,2013-07-15 11:32:00,
2013-07-15 07:37:00,83.8,70.0,30.14,NW,315,0.0,1.0,63,0.00,,,0.00,meteohub,2013-07-15 11:37:00,
2013-07-15 07:42:00,83.8,70.3,30.14,NW,315,0.0,1.0,64,0.00,,,0.00,meteohub,2013-07-15 11:42:00,
2013-07-15 07:47:00,83.7,69.3,30.14,North,0,2.0,2.0,62,0.00,,,0.00,meteohub,2013-07-15 11:47:00,
2013-07-15 07:52:00,83.1,69.6,30.14,NW,315,3.0,3.0,64,0.00,,,0.00,meteohub,2013-07-15 11:52:00,
2013-07-15 07:57:00,82.0,70.0,30.14,North,0,4.0,4.0,67,0.00,,,0.00,meteohub,2013-07-15 11:57:00,
2013-07-15 08:02:00,81.9,70.3,30.14,West,270,3.0,3.0,68,0.00,,,0.00,meteohub,2013-07-15 12:02:00,
2013-07-15 08:07:00,82.8,70.2,30.14,North,0,3.0,4.0,66,0.00,,,0.00,meteohub,2013-07-15 12:07:00,
2013-07-15 08:12:00,82.9,70.0,30.14,NW,315,5.0,5.0,65,0.00,,,0.00,meteohub,2013-07-15 12:12:00,
2013-07-15 08:17:00,83.3,70.7,30.14,NW,315,4.0,4.0,66,0.00,,,0.00,meteohub,2013-07-15 12:17:00,
2013-07-15 08:22:00,83.1,71.1,30.14,North,0,4.0,5.0,67,0.00,,,0.00,meteohub,2013-07-15 12:22:00,
2013-07-15 08:27:00,83.5,70.9,30.14,North,0,6.0,6.0,66,0.00,,,0.00,meteohub,2013-07-15 12:27:00,
2013-07-15 08:32:00,83.5,70.9,30.14,NW,315,4.0,5.0,66,0.00,,,0.00,meteohub,2013-07-15 12:32:00,
2013-07-15 08:37:00,84.0,71.4,30.14,North,0,4.0,6.0,66,0.00,,,0.00,meteohub,2013-07-15 12:37:00,
2013-07-15 08:42:00,84.6,71.4,30.14,North,0,4.0,6.0,65,0.00,,,0.00,meteohub,2013-07-15 12:42:00,
2013-07-15 08:47:00,85.8,72.1,30.14,NW,315,0.0,6.0,64,0.00,,,0.00,meteohub,2013-07-15 12:47:00,
2013-07-15 08:52:00,86.7,71.2,30.14,NNW,338,4.0,4.0,60,0.00,,,0.00,meteohub,2013-07-15 12:52:00,
2013-07-15 08:57:00,86.5,71.4,30.13,NNW,338,5.0,5.0,61,0.00,,,0.00,meteohub,2013-07-15 12:57:00,
2013-07-15 09:02:00,86.4,71.8,30.13,North,0,5.0,5.0,62,0.00,,,0.00,meteohub,2013-07-15 13:02:00,
2013-07-15 09:07:00,86.4,70.9,30.13,North,0,7.0,8.0,60,0.00,,,0.00,meteohub,2013-07-15 13:07:00,
2013-07-15 09:12:00,86.9,72.9,30.13,North,0,3.0,8.0,63,0.00,,,0.00,meteohub,2013-07-15 13:12:00,
2013-07-15 09:17:00,88.3,71.2,30.13,North,0,4.0,8.0,57,0.00,,,0.00,meteohub,2013-07-15 13:17:00,
2013-07-15 09:23:00,88.9,71.6,30.13,North,0,3.0,8.0,57,0.00,,,0.00,meteohub,2013-07-15 13:23:00,
2013-07-15 09:28:00,89.1,70.7,30.13,North,0,6.0,8.0,55,0.00,,,0.00,meteohub,2013-07-15 13:28:00,
2013-07-15 09:33:00,88.7,71.1,30.12,North,0,3.0,8.0,56,0.00,,,0.00,meteohub,2013-07-15 13:33:00,
2013-07-15 09:38:00,89.1,70.7,30.12,North,0,4.0,8.0,55,0.00,,,0.00,meteohub,2013-07-15 13:38:00,
2013-07-15 09:43:00,88.9,72.7,30.12,NW,315,4.0,8.0,59,0.00,,,0.00,meteohub,2013-07-15 13:43:00,
2013-07-15 09:48:00,89.1,69.6,30.12,NE,45,4.0,6.0,53,0.00,,,0.00,meteohub,2013-07-15 13:48:00,
2013-07-15 09:53:00,88.3,69.1,30.11,NW,315,6.0,6.0,53,0.00,,,0.00,meteohub,2013-07-15 13:53:00,
2013-07-15 09:58:00,89.6,70.7,30.11,NW,315,2.0,9.0,54,0.00,,,0.00,meteohub,2013-07-15 13:58:00,
2013-07-15 10:03:00,90.5,69.3,30.11,NW,315,4.0,9.0,50,0.00,,,0.00,meteohub,2013-07-15 14:03:00,
2013-07-15 10:08:00,90.3,69.1,30.11,North,0,6.0,9.0,50,0.00,,,0.00,meteohub,2013-07-15 14:08:00,
2013-07-15 10:15:00,90.1,70.7,30.10,South,180,3.0,8.0,53,0.00,,,0.00,meteohub,2013-07-15 14:15:00,
2013-07-15 10:20:00,90.3,68.5,30.10,NW,315,6.0,8.0,49,0.00,,,0.00,meteohub,2013-07-15 14:20:00,
2013-07-15 10:25:00,89.6,69.6,30.10,West,270,6.0,8.0,52,0.00,,,0.00,meteohub,2013-07-15 14:25:00,
2013-07-15 10:30:00,89.4,67.1,30.10,North,0,8.0,10.0,48,0.00,,,0.00,meteohub,2013-07-15 14:30:00,
2013-07-15 10:35:00,90.0,68.2,30.10,North,0,4.0,10.0,49,0.00,,,0.00,meteohub,2013-07-15 14:35:00,
2013-07-15 10:40:00,90.3,67.3,30.10,NW,315,7.0,10.0,47,0.00,,,0.00,meteohub,2013-07-15 14:40:00,
2013-07-15 10:45:00,91.4,69.6,30.10,West,270,5.0,8.0,49,0.00,,,0.00,meteohub,2013-07-15 14:45:00,
2013-07-15 10:50:00,91.2,67.5,30.10,NW,315,6.0,8.0,46,0.00,,,0.00,meteohub,2013-07-15 14:50:00,
2013-07-15 10:57:00,91.2,68.2,30.09,NNW,338,5.0,8.0,47,0.00,,,0.00,meteohub,2013-07-15 14:57:00,
2013-07-15 11:02:00,90.7,67.6,30.10,NW,315,3.0,7.0,47,0.00,,,0.00,meteohub,2013-07-15 15:02:00,
2013-07-15 11:07:00,91.4,67.6,30.10,North,0,4.0,7.0,46,0.00,,,0.00,meteohub,2013-07-15 15:07:00,
2013-07-15 11:12:00,91.6,67.8,30.09,NW,315,8.0,8.0,46,0.00,,,0.00,meteohub,2013-07-15 15:12:00,
2013-07-15 11:23:00,91.2,68.2,30.09,North,0,6.0,7.0,47,0.00,,,0.00,meteohub,2013-07-15 15:23:00,
2013-07-15 11:28:00,91.9,68.2,30.09,North,0,3.0,8.0,46,0.00,,,0.00,meteohub,2013-07-15 15:28:00,
2013-07-15 11:35:00,92.1,69.6,30.09,NNW,338,4.0,8.0,48,0.00,,,0.00,meteohub,2013-07-15 15:35:00,
2013-07-15 11:42:00,92.5,63.1,30.09,NW,315,4.0,8.0,38,0.00,,,0.00,meteohub,2013-07-15 15:42:00,
2013-07-15 11:47:00,92.3,62.2,30.09,North,0,8.0,8.0,37,0.00,,,0.00,meteohub,2013-07-15 15:47:00,
2013-07-15 11:52:00,92.7,61.9,30.09,NW,315,4.0,8.0,36,0.00,,,0.00,meteohub,2013-07-15 15:52:00,
2013-07-15 11:57:00,93.4,64.8,30.08,West,270,3.0,8.0,39,0.00,,,0.00,meteohub,2013-07-15 15:57:00,
2013-07-15 12:02:00,92.8,64.9,30.08,North,0,6.0,8.0,40,0.00,,,0.00,meteohub,2013-07-15 16:02:00,
2013-07-15 12:07:00,93.6,63.3,30.08,NW,315,9.0,9.0,37,0.00,,,0.00,meteohub,2013-07-15 16:07:00,
2013-07-15 12:12:00,93.0,62.1,30.08,NW,315,7.0,8.0,36,0.00,,,0.00,meteohub,2013-07-15 16:12:00,
2013-07-15 12:17:00,94.5,53.2,30.08,NW,315,3.0,9.0,25,0.00,,,0.00,meteohub,2013-07-15 16:17:00,
2013-07-15 12:24:00,93.6,56.5,30.07,NW,315,8.0,9.0,29,0.00,,,0.00,meteohub,2013-07-15 16:24:00,
2013-07-15 12:29:00,94.6,60.3,30.08,North,0,5.0,9.0,32,0.00,,,0.00,meteohub,2013-07-15 16:29:00,
2013-07-15 12:34:00,94.6,56.5,30.07,NE,45,4.0,8.0,28,0.00,,,0.00,meteohub,2013-07-15 16:34:00,
2013-07-15 12:41:00,94.5,62.6,30.07,SW,225,3.0,8.0,35,0.00,,,0.00,meteohub,2013-07-15 16:41:00,
2013-07-15 12:47:00,94.3,57.2,30.07,NE,45,4.0,8.0,29,0.00,,,0.00,meteohub,2013-07-15 16:47:00,
2013-07-15 12:52:00,94.5,61.0,30.06,SW,225,2.0,8.0,33,0.00,,,0.00,meteohub,2013-07-15 16:52:00,
2013-07-15 13:02:00,93.6,59.2,30.06,North,0,5.0,11.0,32,0.00,,,0.00,meteohub,2013-07-15 17:02:00,
2013-07-15 13:07:00,93.4,63.1,30.06,NW,315,6.0,11.0,37,0.00,,,0.00,meteohub,2013-07-15 17:07:00,
2013-07-15 13:12:00,93.2,62.2,30.07,NE,45,8.0,11.0,36,0.00,,,0.00,meteohub,2013-07-15 17:12:00,
2013-07-15 13:19:00,93.9,60.4,30.06,NW,315,9.0,11.0,33,0.00,,,0.00,meteohub,2013-07-15 17:19:00,
2013-07-15 13:24:00,94.3,64.0,30.06,NE,45,4.0,11.0,37,0.00,,,0.00,meteohub,2013-07-15 17:24:00,
2013-07-15 13:29:00,95.0,64.6,30.06,West,270,2.0,9.0,37,0.00,,,0.00,meteohub,2013-07-15 17:29:00,
2013-07-15 13:36:00,95.2,63.1,30.06,NW,315,4.0,9.0,35,0.00,,,0.00,meteohub,2013-07-15 17:36:00,
2013-07-15 13:41:00,94.1,62.2,30.06,West,270,7.0,9.0,35,0.00,,,0.00,meteohub,2013-07-15 17:41:00,
2013-07-15 13:46:00,94.5,61.0,30.05,West,270,4.0,12.0,33,0.00,,,0.00,meteohub,2013-07-15 17:46:00,
2013-07-15 13:52:00,94.5,60.1,30.05,NW,315,8.0,12.0,32,0.00,,,0.00,meteohub,2013-07-15 17:52:00,
2013-07-15 13:57:00,93.6,61.0,30.05,NW,315,8.0,12.0,34,0.00,,,0.00,meteohub,2013-07-15 17:57:00,
2013-07-15 14:02:00,93.4,60.8,30.05,NW,315,7.0,11.0,34,0.00,,,0.00,meteohub,2013-07-15 18:02:00,
2013-07-15 14:07:00,94.5,65.7,30.05,ENE,68,4.0,11.0,39,0.00,,,0.00,meteohub,2013-07-15 18:07:00,
2013-07-15 14:12:00,94.5,64.2,30.05,West,270,5.0,11.0,37,0.00,,,0.00,meteohub,2013-07-15 18:12:00,
2013-07-15 14:19:00,94.1,62.2,30.05,NNE,23,11.0,11.0,35,0.00,,,0.00,meteohub,2013-07-15 18:19:00,
2013-07-15 14:25:00,94.1,63.1,30.05,NW,315,5.0,11.0,36,0.00,,,0.00,meteohub,2013-07-15 18:25:00,
2013-07-15 14:32:00,94.6,64.4,30.04,NW,315,4.0,11.0,37,0.00,,,0.00,meteohub,2013-07-15 18:32:00,
2013-07-15 14:37:00,94.8,61.2,30.04,NW,315,11.0,11.0,33,0.00,,,0.00,meteohub,2013-07-15 18:37:00,
2013-07-15 14:42:00,94.8,63.0,30.04,NW,315,7.0,11.0,35,0.00,,,0.00,meteohub,2013-07-15 18:42:00,
2013-07-15 14:49:00,95.2,63.1,30.04,NW,315,8.0,15.0,35,0.00,,,0.00,meteohub,2013-07-15 18:49:00,
2013-07-15 14:54:00,94.6,61.9,30.04,North,0,11.0,15.0,34,0.00,,,0.00,meteohub,2013-07-15 18:54:00,
2013-07-15 15:00:00,95.2,65.5,30.04,West,270,3.0,11.0,38,0.00,,,0.00,meteohub,2013-07-15 19:00:00,
2013-07-15 15:05:00,96.1,63.1,30.04,NW,315,4.0,11.0,34,0.00,,,0.00,meteohub,2013-07-15 19:05:00,
2013-07-15 15:10:00,95.7,62.8,30.04,NW,315,6.0,11.0,34,0.00,,,0.00,meteohub,2013-07-15 19:10:00,
2013-07-15 15:17:00,95.0,63.9,30.03,North,0,5.0,8.0,36,0.00,,,0.00,meteohub,2013-07-15 19:17:00,
2013-07-15 15:22:00,95.0,66.2,30.03,NW,315,8.0,8.0,39,0.00,,,0.00,meteohub,2013-07-15 19:22:00,
2013-07-15 15:27:00,94.8,63.7,30.03,NE,45,6.0,8.0,36,0.00,,,0.00,meteohub,2013-07-15 19:27:00,
2013-07-15 15:35:00,95.2,64.0,30.03,NE,45,5.0,10.0,36,0.00,,,0.00,meteohub,2013-07-15 19:35:00,
2013-07-15 15:41:00,95.2,62.4,30.03,NW,315,10.0,10.0,34,0.00,,,0.00,meteohub,2013-07-15 19:41:00,
2013-07-15 15:46:00,94.8,63.7,30.03,WNW,293,5.0,10.0,36,0.00,,,0.00,meteohub,2013-07-15 19:46:00,
2013-07-15 15:51:00,93.4,66.2,30.02,SW,225,3.0,10.0,41,0.00,,,0.00,meteohub,2013-07-15 19:51:00,
2013-07-15 15:57:00,93.4,65.5,30.03,NW,315,5.0,10.0,40,0.00,,,0.00,meteohub,2013-07-15 19:57:00,
2013-07-15 16:02:00,93.9,65.8,30.02,SW,225,6.0,8.0,40,0.00,,,0.00,meteohub,2013-07-15 20:02:00,
2013-07-15 16:07:00,95.2,64.0,30.03,NW,315,6.0,8.0,36,0.00,,,0.00,meteohub,2013-07-15 20:07:00,
2013-07-15 16:12:00,95.0,63.9,30.03,North,0,7.0,8.0,36,0.00,,,0.00,meteohub,2013-07-15 20:12:00,
2013-07-15 16:17:00,94.3,64.8,30.02,NW,315,8.0,11.0,38,0.00,,,0.00,meteohub,2013-07-15 20:17:00,
2013-07-15 16:28:00,94.5,64.2,30.02,NW,315,5.0,11.0,37,0.00,,,0.00,meteohub,2013-07-15 20:28:00,
2013-07-15 16:34:00,95.5,63.5,30.02,West,270,6.0,11.0,35,0.00,,,0.00,meteohub,2013-07-15 20:34:00,
2013-07-15 16:42:00,95.9,63.9,30.01,NW,315,4.0,11.0,35,0.00,,,0.00,meteohub,2013-07-15 20:42:00,
2013-07-15 16:47:00,96.1,62.2,30.02,North,0,4.0,9.0,33,0.00,,,0.00,meteohub,2013-07-15 20:47:00,
2013-07-15 16:52:00,96.8,66.2,30.02,North,0,3.0,9.0,37,0.00,,,0.00,meteohub,2013-07-15 20:52:00,
2013-07-15 16:57:00,96.6,63.7,30.01,NNW,338,5.0,9.0,34,0.00,,,0.00,meteohub,2013-07-15 20:57:00,
2013-07-15 17:02:00,96.1,63.1,30.01,NW,315,6.0,8.0,34,0.00,,,0.00,meteohub,2013-07-15 21:02:00,
2013-07-15 17:07:00,95.5,63.5,30.01,NW,315,6.0,8.0,35,0.00,,,0.00,meteohub,2013-07-15 21:07:00,
2013-07-15 17:12:00,95.7,63.7,30.01,North,0,5.0,8.0,35,0.00,,,0.00,meteohub,2013-07-15 21:12:00,
2013-07-15 17:20:00,96.1,65.7,30.01,West,270,4.0,10.0,37,0.00,,,0.00,meteohub,2013-07-15 21:20:00,
2013-07-15 17:25:00,96.8,66.2,30.01,NW,315,2.0,10.0,37,0.00,,,0.00,meteohub,2013-07-15 21:25:00,
2013-07-15 17:31:00,97.2,65.8,30.01,West,270,1.0,10.0,36,0.00,,,0.00,meteohub,2013-07-15 21:31:00,
2013-07-15 17:38:00,97.2,68.0,30.01,South,180,6.0,8.0,39,0.00,,,0.00,meteohub,2013-07-15 21:38:00,
2013-07-15 17:43:00,91.0,71.6,30.01,South,180,8.0,8.0,53,0.00,,,0.00,meteohub,2013-07-15 21:43:00,
2013-07-15 17:48:00,90.0,71.6,30.01,South,180,5.0,9.0,55,0.00,,,0.00,meteohub,2013-07-15 21:48:00,
2013-07-15 17:56:00,90.0,71.6,30.01,South,180,5.0,9.0,55,0.00,,,0.00,meteohub,2013-07-15 21:56:00,
2013-07-15 18:01:00,88.9,71.6,30.01,SW,225,6.0,8.0,57,0.00,,,0.00,meteohub,2013-07-15 22:01:00,
2013-07-15 18:07:00,88.0,71.4,30.01,South,180,8.0,8.0,58,0.00,,,0.00,meteohub,2013-07-15 22:07:00,
2013-07-15 18:12:00,87.6,71.6,30.01,South,180,6.0,8.0,59,0.00,,,0.00,meteohub,2013-07-15 22:12:00,
2013-07-15 18:17:00,87.3,71.2,30.01,SW,225,9.0,11.0,59,0.00,,,0.00,meteohub,2013-07-15 22:17:00,
2013-07-15 18:22:00,87.1,71.1,30.01,SW,225,4.0,11.0,59,0.00,,,0.00,meteohub,2013-07-15 22:22:00,
2013-07-15 18:27:00,86.5,71.1,30.01,SSW,203,8.0,11.0,60,0.00,,,0.00,meteohub,2013-07-15 22:27:00,
2013-07-15 18:32:00,86.2,70.7,30.01,South,180,9.0,11.0,60,0.00,,,0.00,meteohub,2013-07-15 22:32:00,
2013-07-15 18:37:00,85.8,70.9,30.01,SE,135,6.0,9.0,61,0.00,,,0.00,meteohub,2013-07-15 22:37:00,
2013-07-15 18:42:00,85.6,70.2,30.01,South,180,6.0,9.0,60,0.00,,,0.00,meteohub,2013-07-15 22:42:00,
2013-07-15 18:47:00,85.3,69.8,30.01,South,180,6.0,9.0,60,0.00,,,0.00,meteohub,2013-07-15 22:47:00,
2013-07-15 18:52:00,85.5,69.4,30.01,South,180,7.0,9.0,59,0.00,,,0.00,meteohub,2013-07-15 22:52:00,
2013-07-15 18:57:00,85.1,69.6,30.01,South,180,8.0,10.0,60,0.00,,,0.00,meteohub,2013-07-15 22:57:00,
2013-07-15 19:02:00,84.7,69.3,30.01,SE,135,7.0,10.0,60,0.00,,,0.00,meteohub,2013-07-15 23:02:00,
2013-07-15 19:07:00,84.6,69.1,30.01,SW,225,4.0,10.0,60,0.00,,,0.00,meteohub,2013-07-15 23:07:00,
2013-07-15 19:12:00,84.4,68.9,30.01,South,180,4.0,10.0,60,0.00,,,0.00,meteohub,2013-07-15 23:12:00,
2013-07-15 19:17:00,84.2,68.7,30.01,South,180,7.0,10.0,60,0.00,,,0.00,meteohub,2013-07-15 23:17:00,
2013-07-15 19:24:00,83.5,68.5,30.01,SW,225,4.0,11.0,61,0.00,,,0.00,meteohub,2013-07-15 23:24:00,
2013-07-15 19:32:00,82.9,68.5,30.02,South,180,6.0,8.0,62,0.00,,,0.00,meteohub,2013-07-15 23:32:00,
2013-07-15 19:37:00,82.6,69.1,30.02,South,180,4.0,8.0,64,0.00,,,0.00,meteohub,2013-07-15 23:37:00,
2013-07-15 19:43:00,81.9,68.9,30.02,South,180,3.0,8.0,65,0.00,,,0.00,meteohub,2013-07-15 23:43:00,
2013-07-15 19:48:00,81.5,69.1,30.02,South,180,4.0,6.0,66,0.00,,,0.00,meteohub,2013-07-15 23:48:00,
2013-07-15 19:55:00,80.8,69.3,30.02,South,180,4.0,6.0,68,0.00,,,0.00,meteohub,2013-07-15 23:55:00,
2013-07-15 20:00:00,80.2,69.1,30.02,South,180,2.0,6.0,69,0.00,,,0.00,meteohub,2013-07-16 00:00:00,
2013-07-15 20:05:00,79.3,69.4,30.03,South,180,3.0,4.0,72,0.00,,,0.00,meteohub,2013-07-16 00:05:00,
2013-07-15 20:11:00,79.0,69.6,30.02,South,180,3.0,4.0,73,0.00,,,0.00,meteohub,2013-07-16 00:11:00,
2013-07-15 20:16:00,78.8,69.4,30.02,South,180,4.0,4.0,73,0.00,,,0.00,meteohub,2013-07-16 00:16:00,
2013-07-15 20:22:00,78.3,69.3,30.02,SSW,203,4.0,4.0,74,0.00,,,0.00,meteohub,2013-07-16 00:22:00,
2013-07-15 20:29:00,78.1,69.1,30.03,South,180,2.0,4.0,74,0.00,,,0.00,meteohub,2013-07-16 00:29:00,
2013-07-15 20:34:00,77.9,69.3,30.03,SSW,203,2.0,4.0,75,0.00,,,0.00,meteohub,2013-07-16 00:34:00,
2013-07-15 20:41:00,77.7,69.1,30.03,SE,135,3.0,4.0,75,0.00,,,0.00,meteohub,2013-07-16 00:41:00,
2013-07-15 20:47:00,77.5,69.4,30.03,South,180,3.0,4.0,76,0.00,,,0.00,meteohub,2013-07-16 00:47:00,
2013-07-15 20:52:00,77.5,68.9,30.03,South,180,2.0,4.0,75,0.00,,,0.00,meteohub,2013-07-16 00:52:00,
2013-07-15 21:00:00,76.8,68.7,30.04,NE,45,0.0,4.0,76,0.00,,,0.00,meteohub,2013-07-16 01:00:00,
2013-07-15 21:06:00,76.5,68.7,30.04,South,180,0.0,3.0,77,0.00,,,0.00,meteohub,2013-07-16 01:06:00,
2013-07-15 21:12:00,75.9,68.9,30.04,South,180,0.0,3.0,79,0.00,,,0.00,meteohub,2013-07-16 01:12:00,
2013-07-15 21:17:00,75.6,68.9,30.04,South,180,0.0,1.0,80,0.00,,,0.00,meteohub,2013-07-16 01:17:00,
2013-07-15 21:22:00,75.2,68.9,30.04,North,0,0.0,1.0,81,0.00,,,0.00,meteohub,2013-07-16 01:22:00,
2013-07-15 21:27:00,75.0,69.1,30.04,North,0,0.0,1.0,82,0.00,,,0.00,meteohub,2013-07-16 01:27:00,
2013-07-15 21:32:00,74.5,69.3,30.04,South,180,0.0,0.0,84,0.00,,,0.00,meteohub,2013-07-16 01:32:00,
2013-07-15 21:37:00,74.3,69.4,30.04,South,180,0.0,0.0,85,0.00,,,0.00,meteohub,2013-07-16 01:37:00,
2013-07-15 21:42:00,74.1,69.3,30.04,South,180,0.0,0.0,85,0.00,,,0.00,meteohub,2013-07-16 01:42:00,
2013-07-15 21:47:00,73.9,69.1,30.05,South,180,0.0,1.0,85,0.00,,,0.00,meteohub,2013-07-16 01:47:00,
2013-07-15 21:52:00,73.8,68.9,30.04,South,180,0.0,1.0,85,0.00,,,0.00,meteohub,2013-07-16 01:52:00,
2013-07-15 21:57:00,73.6,69.1,30.04,South,180,0.0,1.0,86,0.00,,,0.00,meteohub,2013-07-16 01:57:00,
2013-07-15 22:02:00,73.4,68.9,30.05,South,180,0.0,0.0,86,0.00,,,0.00,meteohub,2013-07-16 02:02:00,
2013-07-15 22:07:00,73.0,68.9,30.05,South,180,0.0,0.0,87,0.00,,,0.00,meteohub,2013-07-16 02:07:00,
2013-07-15 22:12:00,72.9,69.1,30.05,South,180,0.0,0.0,88,0.00,,,0.00,meteohub,2013-07-16 02:12:00,
2013-07-15 22:17:00,72.7,68.9,30.05,South,180,0.0,0.0,88,0.00,,,0.00,meteohub,2013-07-16 02:17:00,
2013-07-15 22:23:00,72.5,69.1,30.05,South,180,0.0,0.0,89,0.00,,,0.00,meteohub,2013-07-16 02:23:00,
2013-07-15 22:28:00,72.1,68.7,30.05,South,180,0.0,0.0,89,0.00,,,0.00,meteohub,2013-07-16 02:28:00,
2013-07-15 22:35:00,72.0,68.5,30.06,South,180,0.0,0.0,89,0.00,,,0.00,meteohub,2013-07-16 02:35:00,
2013-07-15 22:41:00,71.8,68.7,30.05,North,0,0.0,0.0,90,0.00,,,0.00,meteohub,2013-07-16 02:41:00,
2013-07-15 22:47:00,71.6,68.9,30.06,SW,225,0.0,0.0,91,0.00,,,0.00,meteohub,2013-07-16 02:47:00,
2013-07-15 22:52:00,71.4,68.9,30.05,SW,225,0.0,0.0,92,0.00,,,0.00,meteohub,2013-07-16 02:52:00,
2013-07-15 22:57:00,71.2,68.7,30.05,SW,225,0.0,0.0,92,0.00,,,0.00,meteohub,2013-07-16 02:57:00,
2013-07-15 23:03:00,71.1,68.5,30.06,SW,225,0.0,0.0,92,0.00,,,0.00,meteohub,2013-07-16 03:03:00,
2013-07-15 23:10:00,71.1,68.5,30.06,SW,225,0.0,0.0,92,0.00,,,0.00,meteohub,2013-07-16 03:10:00,
2013-07-15 23:17:00,70.7,68.5,30.05,NE,45,0.0,0.0,93,0.00,,,0.00,meteohub,2013-07-16 03:17:00,
2013-07-15 23:22:00,70.5,68.4,30.06,NE,45,0.0,0.0,93,0.00,,,0.00,meteohub,2013-07-16 03:22:00,
2013-07-15 23:27:00,70.3,68.5,30.05,NE,45,0.0,0.0,94,0.00,,,0.00,meteohub,2013-07-16 03:27:00,
2013-07-15 23:32:00,70.2,68.7,30.06,NW,315,0.0,0.0,95,0.00,,,0.00,meteohub,2013-07-16 03:32:00,
2013-07-15 23:39:00,70.2,68.7,30.06,NW,315,0.0,0.0,95,0.00,,,0.00,meteohub,2013-07-16 03:39:00,
2013-07-15 23:47:00,69.8,68.4,30.06,NW,315,0.0,0.0,95,0.00,,,0.00,meteohub,2013-07-16 03:47:00,
2013-07-15 23:52:00,69.8,68.4,30.05,North,0,0.0,0.0,95,0.00,,,0.00,meteohub,2013-07-16 03:52:00,
2013-07-15 23:57:00,69.8,68.4,30.05,North,0,0.0,0.0,95,0.00,,,0.00,meteohub,2013-07-16 03:57:00,